YO2LDK-13 Weather Reports


time (UTC)temp
F
wind
direction
speed
knots
gust
knots
rain 1hr
in
rain 24hr
in
rain mn
in
humidity
%
barometer
mb
20260507210019 60 282 0.0 0.0 0.00 0.00 0.00 95 1004.4
20260507205519 60 282 0.0 0.0 0.00 0.00 0.00 95 1004.4
20260507205019 60 282 0.0 0.0 0.00 0.00 0.00 95 1004.4
20260507204519 60 282 0.0 0.0 0.00 0.00 0.00 95 1004.1
20260507204020 60 282 0.0 0.0 0.00 0.00 0.00 94 1004.1
20260507203520 60 282 0.0 0.0 0.00 0.00 0.00 94 1004.1
20260507203019 60 282 0.0 0.0 0.00 0.00 0.00 94 1004.4
20260507202520 60 282 0.0 0.0 0.00 0.00 0.00 94 1004.4
20260507202019 60 282 0.0 0.0 0.00 0.00 0.00 93 1004.1
20260507201519 60 282 0.0 0.0 0.00 0.00 0.00 94 1004.1
20260507201019 60 282 0.0 0.0 0.00 0.00 0.00 93 1004.1
20260507200529 60 282 0.0 0.0 0.00 0.00 0.00 93 1004.1
20260507200020 60 282 0.0 0.0 0.00 0.00 0.00 93 1004.1
20260507195519 60 282 0.0 0.0 0.00 0.00 0.00 93 1004.1
20260507195019 60 282 0.0 0.0 0.00 0.00 0.00 93 1004.1
20260507194519 60 282 0.0 0.0 0.00 0.00 0.00 93 1004.1
20260507194021 60 282 0.0 0.0 0.00 0.00 0.00 93 1004.1
20260507193520 60 282 0.0 0.0 0.00 0.00 0.00 94 1004.1
20260507193020 60 282 0.0 0.0 0.00 0.00 0.00 94 1004.1
20260507192519 60 282 0.0 0.0 0.00 0.00 0.00 94 1004.1
20260507192020 60 282 0.0 0.0 0.00 0.00 0.00 94 1004.1
20260507191519 60 282 0.0 0.0 0.00 0.00 0.00 94 1004.1
20260507191020 61 282 0.0 0.0 0.00 0.00 0.00 94 1004.1
20260507190519 61 282 0.0 0.0 0.00 0.00 0.00 94 1004.1
20260507190019 61 282 0.0 0.0 0.00 0.00 0.00 94 1004.1
20260507185521 61 282 0.0 0.0 0.00 0.00 0.00 94 1004.1
20260507185021 61 282 0.0 0.0 0.00 0.00 0.00 94 1004.1
20260507184519 62 282 0.0 0.0 0.00 0.00 0.00 94 1003.7
20260507184020 62 282 0.0 0.0 0.00 0.00 0.00 94 1003.7
20260507183520 62 282 0.0 0.0 0.00 0.00 0.00 94 1003.7
20260507183019 62 282 0.0 0.0 0.00 0.00 0.00 94 1003.7
20260507182526 62 282 0.0 0.0 0.00 0.00 0.00 93 1003.7
20260507182020 62 282 0.0 0.0 0.00 0.00 0.00 93 1003.7
20260507181520 62 282 0.0 0.0 0.00 0.00 0.00 92 1003.7
20260507181021 62 282 0.0 0.0 0.00 0.00 0.00 92 1003.7
20260507180520 62 282 0.0 0.0 0.00 0.00 0.00 92 1003.7
20260507180021 63 282 0.0 0.0 0.00 0.00 0.00 92 1003.7
20260507175519 63 282 0.0 0.0 0.00 0.00 0.00 91 1003.7
20260507175020 63 282 0.0 0.0 0.00 0.00 0.00 91 1003.4
20260507174519 63 282 0.0 0.0 0.00 0.00 0.00 91 1003.4
20260507174023 63 282 0.0 0.0 0.00 0.00 0.00 91 1003.4
20260507173519 63 282 0.0 0.0 0.00 0.00 0.00 91 1003.4
20260507173020 64 282 0.0 0.0 0.00 0.00 0.00 90 1003.4
20260507172519 64 282 0.0 0.0 0.00 0.00 0.00 89 1003.4
20260507172020 64 282 0.0 0.0 0.00 0.00 0.00 89 1003.4
20260507171521 64 282 0.0 0.0 0.00 0.00 0.00 88 1003.4
20260507171021 64 282 0.0 0.0 0.00 0.00 0.00 87 1003.4
20260507170519 65 282 0.0 0.0 0.00 0.00 0.00 86 1003.4
20260507170019 65 282 0.0 0.0 0.00 0.00 0.00 86 1003.4
20260507165519 65 282 0.0 0.0 0.00 0.00 0.00 85 1003.4
20260507165019 65 282 0.0 0.0 0.00 0.00 0.00 86 1003.4
20260507164519 65 282 0.0 0.0 0.00 0.00 0.00 85 1003.4
20260507164020 66 282 0.0 0.0 0.00 0.00 0.00 84 1003.4
20260507163520 66 282 0.0 0.0 0.00 0.00 0.00 85 1003.4
20260507163019 66 282 0.0 0.0 0.00 0.00 0.00 84 1003.0
20260507162520 66 282 0.0 0.0 0.00 0.00 0.00 84 1003.0
20260507162019 67 282 0.0 0.0 0.00 0.00 0.00 85 1003.4
20260507161519 67 282 0.0 0.0 0.00 0.00 0.00 84 1003.0
20260507161019 67 282 0.0 0.0 0.00 0.00 0.00 85 1003.4
20260507160519 66 282 0.0 0.0 0.00 0.00 0.00 87 1003.4
20260507160020 66 282 0.0 0.0 0.00 0.00 0.00 86 1003.4
20260507155521 66 282 0.0 0.0 0.00 0.00 0.00 86 1003.4
20260507155022 66 282 0.0 0.0 0.00 0.00 0.00 89 1003.4
20260507154520 65 282 0.0 0.0 0.00 0.00 0.00 89 1003.4
20260507154020 65 282 0.0 0.0 0.00 0.00 0.00 89 1003.7
20260507153520 65 282 0.0 0.0 0.00 0.00 0.00 90 1003.4
20260507153021 65 282 0.0 0.0 0.00 0.00 0.00 91 1003.4
20260507152520 65 282 0.0 0.0 0.00 0.00 0.00 91 1003.4
20260507152020 65 282 0.0 0.0 0.00 0.00 0.00 91 1003.4
20260507151521 65 282 0.0 0.0 0.00 0.00 0.00 92 1003.4
20260507151019 65 282 0.0 0.0 0.00 0.00 0.00 92 1003.4
20260507150520 65 282 0.0 0.0 0.00 0.00 0.00 90 1003.4
20260507150020 65 282 0.0 0.0 0.00 0.00 0.00 89 1003.7
20260507145520 65 282 0.0 0.0 0.00 0.00 0.00 88 1003.7
20260507145021 66 282 0.0 0.0 0.00 0.00 0.00 87 1004.1
20260507144520 66 282 0.0 0.0 0.00 0.00 0.00 86 1003.7
20260507144019 66 282 0.0 0.0 0.00 0.00 0.00 84 1003.7
20260507143520 67 282 0.0 0.0 0.00 0.00 0.00 83 1003.7
20260507143020 67 282 0.0 0.0 0.00 0.00 0.00 83 1003.7
20260507142520 67 282 0.0 0.0 0.00 0.00 0.00 81 1003.7
20260507142020 67 282 0.0 0.0 0.00 0.00 0.00 82 1003.7
20260507141520 67 282 0.0 0.0 0.00 0.00 0.00 81 1003.7
20260507141020 67 282 0.0 0.0 0.00 0.00 0.00 81 1003.7
20260507140520 67 282 1.7 1.7 0.00 0.00 0.00 81 1003.7
20260507140022 67 282 0.0 0.0 0.00 0.00 0.00 82 1003.7
20260507135519 67 282 0.0 0.0 0.00 0.00 0.00 82 1004.1
20260507135020 68 282 0.0 0.0 0.00 0.00 0.00 80 1004.1
20260507134520 68 282 0.0 0.0 0.00 0.00 0.00 80 1004.1
20260507134020 68 282 0.9 0.9 0.00 0.00 0.00 79 1004.1
20260507133519 68 282 0.0 0.0 0.00 0.00 0.00 81 1004.1
20260507133020 67 264 0.0 0.0 0.00 0.00 0.00 84 1004.1
20260507132519 67 264 0.0 0.0 0.00 0.00 0.00 82 1004.1
20260507132020 66 264 1.7 1.7 0.00 0.00 0.00 82 1004.1
20260507131520 67 294 0.0 0.0 0.00 0.00 0.00 83 1004.4
20260507131020 66 282 1.7 1.7 0.00 0.00 0.00 84 1004.1
20260507130522 66 282 0.0 0.0 0.00 0.00 0.00 84 1004.4
20260507130020 65 282 0.0 0.0 0.00 0.00 0.00 85 1004.4
20260507125519 66 282 1.7 1.7 0.00 0.00 0.00 84 1004.4
20260507125020 65 288 0.0 0.0 0.00 0.00 0.00 85 1004.4
20260507124519 65 288 0.0 0.0 0.00 0.00 0.00 86 1004.4
20260507124022 65 288 0.0 0.0 0.00 0.00 0.00 85 1004.4
20260507123520 65 288 0.0 0.0 0.00 0.00 0.00 86 1004.4
20260507123019 65 288 2.6 2.6 0.00 0.00 0.00 86 1004.4
20260507122520 65 288 0.0 0.0 0.00 0.00 0.00 87 1004.4
20260507122020 65 270 1.7 1.7 0.00 0.00 0.00 86 1004.4
20260507121519 65 270 1.7 1.7 0.00 0.00 0.00 88 1004.4
20260507121021 65 270 0.0 0.0 0.00 0.00 0.00 88 1004.4
20260507120521 65 270 0.0 0.0 0.00 0.00 0.00 87 1004.4
20260507120020 65 270 1.7 1.7 0.00 0.00 0.00 87 1004.7
20260507115519 65 294 2.6 2.6 0.00 0.00 0.00 86 1004.7
20260507115019 64 276 0.9 0.9 0.00 0.00 0.00 87 1004.4
20260507114519 64 264 1.7 1.7 0.00 0.00 0.00 87 1004.4
20260507114019 64 299 0.9 0.9 0.00 0.00 0.00 86 1004.4
20260507113520 65 316 1.7 1.7 0.00 0.00 0.00 87 1004.7
20260507113019 64 324 0.0 0.0 0.00 0.00 0.00 87 1004.7
20260507112520 65 282 0.0 0.0 0.00 0.00 0.00 86 1004.7
20260507112019 64 288 1.7 1.7 0.00 0.00 0.00 87 1005.1
20260507111519 64 288 0.9 0.9 0.00 0.00 0.00 88 1005.1
20260507111019 64 288 0.0 0.0 0.00 0.00 0.00 89 1005.1
20260507110521 63 288 0.0 0.0 0.00 0.00 0.00 89 1005.1
20260507110021 63 288 0.0 0.0 0.00 0.00 0.00 90 1005.1
20260507105520 63 288 0.0 0.0 0.00 0.00 0.00 90 1005.1
20260507105021 63 288 0.0 0.0 0.00 0.00 0.00 91 1005.1
20260507104520 63 288 1.7 1.7 0.00 0.00 0.00 90 1005.1
20260507104020 63 288 0.0 0.0 0.00 0.00 0.00 91 1005.1
20260507103520 63 288 1.7 1.7 0.00 0.00 0.00 91 1005.1
20260507103022 63 288 0.0 0.0 0.00 0.00 0.00 92 1005.1
20260507102519 63 288 0.0 0.0 0.00 0.00 0.00 92 1005.1
20260507102021 62 288 0.0 0.0 0.00 0.00 0.00 92 1005.1
20260507101519 62 270 0.9 0.9 0.00 0.00 0.00 92 1005.1
20260507101020 63 294 0.9 0.9 0.00 0.00 0.00 93 1005.1
20260507100520 63 276 1.7 1.7 0.00 0.00 0.00 91 1004.7
20260507100020 63 276 0.0 0.0 0.00 0.00 0.00 92 1005.1
20260507095519 63 276 0.0 0.0 0.00 0.00 0.00 92 1005.1
20260507095020 62 276 0.0 0.0 0.00 0.00 0.00 92 1005.1
20260507094521 62 276 0.0 0.0 0.00 0.00 0.00 91 1005.1
20260507094019 62 288 0.0 0.0 0.00 0.00 0.00 92 1005.1
20260507093519 62 288 0.0 0.0 0.00 0.00 0.00 92 1005.1
20260507093019 62 294 0.0 0.0 0.00 0.00 0.00 92 1005.1
20260507092520 62 282 0.9 0.9 0.00 0.00 0.00 93 1005.1
20260507092019 62 283 0.9 0.9 0.00 0.00 0.00 93 1005.1
20260507091519 62 288 0.0 0.0 0.00 0.00 0.00 93 1005.1
20260507091019 62 288 1.7 1.7 0.00 0.00 0.00 93 1005.1
20260507090519 63 282 0.9 0.9 0.00 0.00 0.00 93 1005.1
20260507090019 63 294 0.0 0.0 0.00 0.00 0.00 92 1005.1
20260507085521 63 294 0.0 0.0 0.00 0.00 0.00 92 1005.1
20260507085020 63 294 1.7 1.7 0.00 0.00 0.00 92 1004.7
20260507084519 63 294 0.0 0.0 0.00 0.00 0.00 92 1004.7
20260507084020 63 294 0.0 0.0 0.00 0.00 0.00 91 1004.7
20260507083519 63 294 0.0 0.0 0.00 0.00 0.00 91 1004.7
20260507083019 63 300 1.7 1.7 0.00 0.00 0.00 91 1004.7
20260507082519 63 294 1.7 1.7 0.00 0.00 0.00 91 1004.7
20260507082019 62 300 0.0 0.0 0.00 0.00 0.00 91 1004.4
20260507081519 62 294 2.6 2.6 0.00 0.00 0.00 91 1004.7
20260507081019 62 288 2.6 2.6 0.00 0.00 0.00 91 1004.7
20260507080520 63 288 1.7 1.7 0.00 0.00 0.00 91 1004.7
20260507080021 63 276 0.9 0.9 0.00 0.00 0.00 90 1004.7
20260507075521 62 294 0.0 0.0 0.00 0.00 0.00 91 1004.7
20260507075020 62 288 1.7 1.7 0.00 0.00 0.00 92 1004.4
20260507074520 62 288 1.7 1.7 0.00 0.00 0.00 91 1004.7
20260507074020 62 293 2.6 2.6 0.00 0.00 0.00 91 1004.7
20260507073520 62 294 4.3 5.2 0.00 0.00 0.00 93 1004.7
20260507073020 62 288 1.7 1.7 0.00 0.00 0.00 93 1004.7
20260507072519 62 294 1.7 1.7 0.00 0.00 0.00 94 1004.7
20260507072020 62 282 0.9 0.9 0.00 0.00 0.00 95 1004.7
20260507071520 61 282 0.0 0.0 0.00 0.00 0.00 95 1004.7
20260507071019 61 282 0.0 0.0 0.00 0.00 0.00 95 1004.7
20260507070519 61 282 0.0 0.0 0.00 0.00 0.00 95 1004.7
20260507070020 61 282 1.7 1.7 0.00 0.00 0.00 94 1004.7
20260507065521 61 282 1.7 1.7 0.00 0.00 0.00 95 1004.7
20260507065020 61 282 0.9 0.9 0.00 0.00 0.00 96 1004.7
20260507064519 61 282 1.7 1.7 0.00 0.00 0.00 96 1004.7
20260507064020 61 282 0.0 0.0 0.00 0.00 0.00 96 1004.7
20260507063520 61 282 0.0 0.0 0.00 0.00 0.00 96 1004.7
20260507063020 61 288 0.9 0.9 0.00 0.00 0.00 96 1004.4
20260507062524 61 288 0.9 0.9 0.00 0.00 0.00 96 1004.7
20260507062021 61 288 0.0 0.0 0.00 0.00 0.00 95 1004.4
20260507061521 61 24 0.0 0.0 0.00 0.00 0.00 95 1004.7
20260507061020 61 24 0.0 0.0 0.00 0.00 0.00 96 1004.7
20260507060519 61 24 0.0 0.0 0.00 0.00 0.00 95 1004.4
20260507060020 61 6 0.0 0.0 0.00 0.00 0.00 95 1004.7
20260507055521 61 42 0.0 0.0 0.00 0.00 0.00 94 1004.4
20260507055019 61 42 0.0 0.0 0.00 0.00 0.00 94 1004.4
20260507054519 61 42 0.0 0.0 0.00 0.00 0.00 92 1004.4
20260507054020 62 36 0.0 0.0 0.00 0.00 0.00 90 1004.4
20260507053520 62 74 1.7 1.7 0.00 0.00 0.00 90 1004.1
20260507053019 62 270 0.0 0.0 0.00 0.00 0.00 90 1004.1
20260507052520 62 270 0.0 0.0 0.00 0.00 0.00 90 1004.1
20260507052019 62 270 0.0 0.0 0.00 0.00 0.00 90 1004.1
20260507051520 62 270 0.0 0.0 0.00 0.00 0.00 89 1004.1
20260507051022 62 48 0.0 0.0 0.00 0.00 0.00 88 1003.7
20260507050519 62 24 0.0 0.0 0.00 0.00 0.00 88 1003.7
20260507050020 62 12 0.0 0.0 0.00 0.00 0.00 88 1003.7
20260507045519 62 12 0.0 0.0 0.00 0.00 0.00 88 1003.7
20260507045019 62 12 0.0 0.0 0.00 0.00 0.00 88 1003.4
20260507044519 61 6 0.0 0.0 0.00 0.00 0.00 88 1003.4
20260507044021 61 18 0.0 0.0 0.00 0.00 0.00 88 1003.0
20260507043520 61 18 0.0 0.0 0.00 0.00 0.00 88 1003.4
20260507043019 61 18 0.0 0.0 0.00 0.00 0.00 88 1003.4
20260507042519 61 18 0.0 0.0 0.00 0.00 0.00 88 1003.0
20260507042019 61 30 0.0 0.0 0.00 0.00 0.00 88 1003.0
20260507041519 61 30 0.0 0.0 0.00 0.00 0.00 88 1003.0
20260507041020 61 30 0.0 0.0 0.00 0.00 0.00 88 1003.0
20260507040521 61 30 0.0 0.0 0.00 0.00 0.00 88 1002.7
20260507040020 61 30 0.0 0.0 0.00 0.00 0.00 88 1003.0
20260507035520 60 30 0.0 0.0 0.00 0.00 0.00 88 1002.7
20260507035021 60 30 0.0 0.0 0.00 0.00 0.00 88 1002.7
20260507034519 60 30 0.0 0.0 0.00 0.00 0.00 88 1003.0
20260507034020 60 30 0.0 0.0 0.00 0.00 0.00 87 1002.7
20260507033520 61 30 0.0 0.0 0.00 0.00 0.00 87 1002.4
20260507033019 61 30 0.0 0.0 0.00 0.00 0.00 87 1002.4
20260507032520 61 30 0.0 0.0 0.00 0.00 0.00 86 1002.0
20260507032019 61 30 0.0 0.0 0.00 0.00 0.00 86 1002.4
20260507031522 61 30 0.0 0.0 0.00 0.00 0.00 85 1002.4
20260507031019 61 30 0.0 0.0 0.00 0.00 0.00 85 1002.4
20260507030519 61 30 0.0 0.0 0.00 0.00 0.00 85 1002.4
20260507030019 61 36 0.0 0.0 0.00 0.00 0.00 85 1002.4
20260507025520 60 36 0.0 0.0 0.00 0.00 0.00 85 1002.4
20260507025020 60 36 0.0 0.0 0.00 0.00 0.00 85 1002.0
20260507024519 60 36 0.0 0.0 0.00 0.00 0.00 85 1002.4
20260507024019 60 36 0.0 0.0 0.00 0.00 0.00 85 1002.4
20260507023520 60 36 0.0 0.0 0.00 0.00 0.00 85 1002.0
20260507023023 60 36 0.0 0.0 0.00 0.00 0.00 84 1002.0
20260507022520 60 36 0.0 0.0 0.00 0.00 0.00 84 1002.0
20260507022020 60 78 0.0 0.0 0.00 0.00 0.00 84 1001.7
20260507021520 60 78 0.0 0.0 0.00 0.00 0.00 84 1001.7
20260507021019 59 78 0.0 0.0 0.00 0.00 0.00 83 1001.7
20260507020520 59 78 0.0 0.0 0.00 0.00 0.00 84 1001.7
20260507020019 60 78 0.0 0.0 0.00 0.00 0.00 84 1002.0
20260507015520 60 78 0.0 0.0 0.00 0.00 0.00 84 1001.7
20260507015019 60 78 0.0 0.0 0.00 0.00 0.00 83 1001.7
20260507014519 60 78 0.0 0.0 0.00 0.00 0.00 83 1002.0
20260507014019 60 78 0.0 0.0 0.00 0.00 0.00 82 1002.0
20260507013520 60 78 0.0 0.0 0.00 0.00 0.00 82 1002.0
20260507013020 60 78 0.0 0.0 0.00 0.00 0.00 82 1001.7
20260507012520 61 78 0.0 0.0 0.00 0.00 0.00 81 1001.7
20260507012019 61 78 0.0 0.0 0.00 0.00 0.00 81 1001.7
20260507011520 61 78 0.0 0.0 0.00 0.00 0.00 81 1001.7
20260507011020 61 78 0.0 0.0 0.00 0.00 0.00 80 1001.7
20260507010519 61 78 0.0 0.0 0.00 0.00 0.00 79 1001.7
20260507010020 60 78 0.0 0.0 0.00 0.00 0.00 79 1001.7
20260507005519 60 78 0.0 0.0 0.00 0.00 0.00 78 1001.4
20260507005019 60 78 0.0 0.0 0.00 0.00 0.00 78 1001.4
20260507004520 60 78 0.0 0.0 0.00 0.00 0.00 78 1001.4
20260507004020 60 78 0.0 0.0 0.00 0.00 0.00 78 1001.4
20260507003519 60 78 0.0 0.0 0.00 0.00 0.00 78 1001.4
20260507003022 60 78 0.0 0.0 0.00 0.00 0.00 77 1001.0
20260507002521 61 78 0.0 0.0 0.00 0.00 0.00 76 1001.0
20260507002019 61 78 0.0 0.0 0.00 0.00 0.00 77 1000.7
20260507001519 61 78 0.0 0.0 0.00 0.00 0.00 76 1001.0
20260507001019 61 78 0.0 0.0 0.00 0.00 0.00 76 1000.7
20260507000522 61 78 0.0 0.0 0.00 0.00 0.00 75 1000.7
20260507000020 62 78 0.0 0.0 0.00 0.00 0.00 74 1001.0
20260506235519 62 78 0.0 0.0 0.00 0.00 0.00 74 1000.7
20260506235020 62 78 0.0 0.0 0.00 0.00 0.00 72 1000.7
20260506234523 62 78 0.0 0.0 0.00 0.00 0.00 72 1000.7
20260506234020 63 78 0.0 0.0 0.00 0.00 0.00 72 1001.0
20260506233519 63 78 0.0 0.0 0.00 0.00 0.00 71 1000.7
20260506233020 63 78 0.0 0.0 0.00 0.00 0.00 71 1001.0
20260506232519 64 78 0.0 0.0 0.00 0.00 0.00 70 1000.7
20260506232019 64 78 0.0 0.0 0.00 0.00 0.00 69 1000.7
20260506231519 64 78 0.0 0.0 0.00 0.00 0.00 68 1000.7
20260506231020 65 78 0.0 0.0 0.00 0.00 0.00 68 1000.7
20260506230519 65 78 0.0 0.0 0.00 0.00 0.00 67 1001.0
20260506230020 65 78 0.0 0.0 0.00 0.00 0.00 66 1001.0
20260506225520 66 78 0.0 0.0 0.00 0.00 0.00 65 1001.0
20260506225020 66 78 0.0 0.0 0.00 0.00 0.00 64 1001.0
20260506224521 66 78 0.0 0.0 0.00 0.00 0.00 63 1001.4
20260506224019 67 78 0.0 0.0 0.00 0.00 0.00 62 1001.7
20260506223519 66 78 0.0 0.0 0.00 0.00 0.00 60 1001.4
20260506223019 65 66 0.0 0.0 0.00 0.00 0.00 59 1001.7
20260506222521 63 30 0.9 0.9 0.00 0.00 0.00 59 1001.0
20260506222019 62 48 1.7 1.7 0.00 0.00 0.00 66 1001.4
20260506221520 62 24 0.0 0.0 0.00 0.00 0.00 67 1000.7
20260506221021 62 288 0.0 0.0 0.00 0.00 0.00 68 1000.7
20260506220520 62 288 0.0 0.0 0.00 0.00 0.00 69 1000.7
20260506220019 62 288 0.0 0.0 0.00 0.00 0.00 69 1000.3
20260506215519 62 288 0.0 0.0 0.00 0.00 0.00 68 1000.0
20260506215019 62 292 0.0 0.0 0.00 0.00 0.00 68 1000.3
20260506214519 62 288 0.0 0.0 0.00 0.00 0.00 69 1000.3
20260506214019 61 288 0.0 0.0 0.00 0.00 0.00 68 1000.0
20260506213519 61 288 0.0 0.0 0.00 0.00 0.00 69 1000.0
20260506213019 61 288 0.0 0.0 0.00 0.00 0.00 70 1000.3
20260506212519 61 292 0.0 0.0 0.00 0.00 0.00 70 1000.7
20260506212019 61 288 0.0 0.0 0.00 0.00 0.00 70 1000.3
20260506211519 61 288 0.0 0.0 0.00 0.00 0.00 70 1000.3
20260506211020 61 292 0.0 0.0 0.00 0.00 0.00 70 1000.3
20260506210519 61 292 0.0 0.0 0.00 0.00 0.00 70 1000.3